Flag for Canada Weather past 2 weeks in Laval, Quebec, Canada

Now
45 °F

Clear.


Feels Like: 43 °F
Forecast: 46 / 61 °F
Wind: 3 mph from Southwest

Location: Montreal / Mirabel

Current Time: Sep 17, 2014 at 3:43:50 AM

Latest Report: Sep 17, 2014 at 3:00 AM


Visibility: 25 mi

Pressure: 29.95 "Hg

Humidity: 93%

Dew point: 43 °F

Location of LavalLocation

Historic Weather in Laval — Graph

°F

Laval temperature yesterday

Maximum temperature yesterday: 64 °F (at 4:00 PM)
Minimum temperature yesterday: 50 °F (at 7:00 AM)
Average temperature yesterday: 55 °F

Past Weeks' High & Low Weather Summary

 TemperatureHumidityPressure
High84 °F (Sep 5, 3:00 PM)100% (Sep 2, 6:00 AM)30.37 "Hg (Sep 2, 6:00 AM)
Low39 °F (Sep 15, 1:00 AM)36% (Sep 9, 2:00 PM)29.51 "Hg (Sep 11, 12:00 PM)
Average60 °F80%30.04 "Hg
* Reported Sep 2 2:00 AM — Sep 17 2:00 AM, Laval, Weather by CustomWeather, © 2014

Note: Actual official high and low records may vary slightly from our data, if they occured in-between our weather recording intervals... More about our weather records

Advertising

Laval weather history for previous 24 hours

 ConditionsComfort  
Time TempWeatherWind HumidityBarometerVisibility
2:00 AM
Sep 17
48 °FClear.3 mph82%29.96 "Hg25 mi
1:00 AM48 °FClear.3 mph87%29.95 "Hg25 mi
12:00 AM50 °FClear.3 mph82%29.95 "Hg25 mi
11:00 PM
Sep 16
50 °FClear.2 mph82%29.95 "Hg25 mi
10:00 PM50 °FClear.2 mph82%29.96 "Hg25 mi
9:00 PM52 °FPassing clouds.2 mph77%29.94 "Hg25 mi
8:00 PM55 °FPassing clouds.3 mph67%29.94 "Hg25 mi
7:00 PM57 °FPassing clouds.3 mph63%29.93 "Hg45 mi
6:00 PM61 °FPassing clouds.6 mph55%29.92 "Hg45 mi
5:00 PM63 °FBroken clouds.5 mph56%29.92 "Hg45 mi
4:00 PM64 °FBroken clouds.6 mph52%29.92 "Hg45 mi
3:00 PM57 °FBroken clouds.No wind72%29.93 "Hg45 mi
2:00 PM61 °FBroken clouds.6 mph55%29.94 "Hg45 mi
1:00 PM61 °FPartly sunny.7 mph59%29.95 "Hg45 mi
12:00 PM59 °FPartly sunny.6 mph68%29.97 "Hg25 mi
11:00 AM59 °FScattered clouds.7 mph72%29.98 "Hg25 mi
10:00 AM55 °FPartly sunny.5 mph82%30.00 "Hg20 mi
9:00 AM55 °FScattered clouds.6 mph82%29.99 "Hg10 mi
8:00 AM52 °FFog.5 mph94%30.00 "Hg4 mi
7:52 AM52 °FFog.6 mph94%30.00 "Hg4 mi
7:00 AM50 °FFog.3 mph100%30.00 "Hg3 mi
6:00 AM52 °FFog.6 mph94%29.98 "Hg6 mi
5:00 AM52 °FFog.6 mph94%29.98 "Hg6 mi
4:00 AM52 °FFog.5 mph94%29.99 "Hg6 mi
3:00 AM52 °FLow clouds.3 mph94%29.98 "Hg10 mi
Weather by CustomWeather, © 2014

See weather overviewHow to use our weather pages